Weather reports worldwide

Advertisment
Roma/Ciampino, Italy (16239): temperature & dewpoint: 16.02.2019 02:00:00 - 22.02.2019 02:00:00 (CET)Roma/Ciampino, Italy (16239): wind speed: 16.02.2019 02:00:00 - 22.02.2019 02:00:00 (CET)Roma/Ciampino, Italy (16239): wind direction: 16.02.2019 02:00:00 - 22.02.2019 02:00:00 (CET)Roma/Ciampino, Italy (16239): reduced air pressure: 16.02.2019 02:00:00 - 22.02.2019 02:00:00 (CET)Roma/Ciampino, Italy (16239): visibility: 16.02.2019 02:00:00 - 22.02.2019 02:00:00 (CET)Roma/Ciampino, Italy (16239): precipitation: 16.02.2019 02:00:00 - 22.02.2019 02:00:00 (CET)
Date & Time tt [°C] td [°C] ff [km/h] ff [kn] dd ppp [hPa] vv [km] rr [mm]
22.02.2019 02:00:00 6,0 4,0 4 2 ENE - 8 -
22.02.2019 01:00:00 6,1 3,8 4 2 E 1026,5 10 -
22.02.2019 00:00:00 7,0 4,0 4 2 - - 10 -
21.02.2019 23:00:00 7,0 5,0 5 3 E - 7 -
21.02.2019 22:00:00 7,5 5,8 8 4 E 1027,0 7 0,0
21.02.2019 21:00:00 8,0 6,0 8 4 ESE - 8 -
21.02.2019 20:00:00 8,0 6,0 9 5 ESE - 10 -
21.02.2019 19:00:00 9,9 6,4 5 3 S 1027,1 10 -
21.02.2019 18:00:00 12,0 7,0 5 3 SW - 10 -
21.02.2019 17:00:00 13,0 6,0 13 7 W - 10 -
21.02.2019 16:00:00 13,4 5,5 13 7 W 1026,9 10 0,0
21.02.2019 15:00:00 15,0 5,0 5 3 WNW - 10 -
21.02.2019 14:00:00 14,0 4,0 8 4 WNW - 10 -
21.02.2019 13:00:00 13,9 4,4 8 4 W 1027,4 10 -
21.02.2019 12:00:00 12,0 4,0 8 4 NW - 10 -
21.02.2019 11:00:00 10,0 4,0 5 3 NW - 10 -
21.02.2019 10:00:00 8,3 3,7 5 3 NNE 1027,9 9 0,0
21.02.2019 09:00:00 5,0 3,0 5 3 N - 10 -
21.02.2019 08:00:00 4,0 2,0 4 2 - - 10 -
21.02.2019 07:00:00 3,5 1,7 8 4 NNE 1026,6 10 -
21.02.2019 06:00:00 5,0 3,0 4 2 NE - 10 -
21.02.2019 05:00:00 4,0 2,0 5 3 NE - 10 -
21.02.2019 04:00:00 3,8 2,6 4 2 ENE 1026,1 10 0,0
21.02.2019 03:00:00 4,0 3,0 4 2 - - 10 -
21.02.2019 02:00:00 5,0 3,0 5 3 ENE - 10 -
21.02.2019 01:00:00 4,8 2,8 8 4 E 1026,0 10 -
21.02.2019 00:00:00 5,0 3,0 5 3 E - 10 -
20.02.2019 23:00:00 6,0 4,0 8 4 ESE - 10 -
20.02.2019 22:00:00 6,4 3,9 5 3 ESE 1025,7 20 0,0
20.02.2019 21:00:00 8,0 4,0 5 3 SE - 10 -
20.02.2019 20:00:00 8,0 5,0 5 3 ESE - 10 -
20.02.2019 19:00:00 9,3 5,0 4 2 - 1024,8 20 -
20.02.2019 18:00:00 11,0 5,0 9 5 W - 10 -
20.02.2019 17:00:00 13,0 5,0 13 7 W - 10 -
20.02.2019 16:00:00 13,9 4,3 11 6 W 1023,8 20 0,0
20.02.2019 15:00:00 14,0 4,0 8 4 NW - 10 -
20.02.2019 14:00:00 13,0 3,0 9 5 NW - 10 -
20.02.2019 13:00:00 12,0 3,0 9 5 N - 10 -
20.02.2019 12:00:00 12,0 4,0 9 5 NE - 10 -
20.02.2019 11:00:00 11,0 3,0 13 7 N - 9 -
20.02.2019 10:00:00 9,4 4,5 9 5 NNE 1025,0 9 0,0
20.02.2019 09:00:00 7,0 4,0 8 4 NNE - 9 -
20.02.2019 08:00:00 3,0 1,0 4 2 - - 8 -
20.02.2019 07:00:00 3,0 1,6 11 6 NE 1023,5 7 -
20.02.2019 06:00:00 3,0 2,0 2 1 - - 8 -
20.02.2019 05:00:00 5,0 3,0 4 2 - - 7 -
20.02.2019 04:00:00 5,4 2,5 4 2 NE 1023,5 7 0,0
20.02.2019 03:00:00 4,0 2,0 4 2 - - 10 -
20.02.2019 02:00:00 4,0 2,0 5 3 E - 10 -
20.02.2019 01:00:00 4,5 2,1 5 3 E 1023,9 10 -
20.02.2019 00:00:00 5,0 2,0 8 4 E - 10 -
19.02.2019 23:00:00 5,0 2,0 8 4 E - 10 -
19.02.2019 22:00:00 5,7 2,4 8 4 E 1023,8 10 0,0
19.02.2019 21:00:00 6,0 3,0 8 4 E - 10 -
19.02.2019 20:00:00 7,0 3,0 8 4 E - 10 -
19.02.2019 19:00:00 7,8 3,2 5 3 E 1023,2 10 -
19.02.2019 18:00:00 10,0 3,0 8 4 NNE - 8 -
19.02.2019 17:00:00 11,0 3,0 8 4 WNW - 10 -
19.02.2019 16:00:00 11,2 3,3 5 3 - 1023,4 8 0,0
19.02.2019 15:00:00 11,0 3,0 8 4 WNW - 8 -
19.02.2019 14:00:00 11,0 3,0 8 4 NNW - 8 -
19.02.2019 13:00:00 10,8 2,9 5 3 W 1024,3 8 -
19.02.2019 12:00:00 11,0 4,0 5 3 NNE - 8 -
19.02.2019 11:00:00 10,0 6,0 4 2 - - 5 -
19.02.2019 10:00:00 9,6 6,0 2 1 - 1024,7 4,0 0,0
19.02.2019 09:00:00 9,0 6,0 2 1 - - 5 -
19.02.2019 08:00:00 8,0 7,0 2 1 - - 5 -
19.02.2019 07:00:00 8,4 6,4 2 1 - 1023,5 6 -
19.02.2019 06:00:00 8,0 6,0 2 1 - - 7 -
19.02.2019 05:00:00 8,0 7,0 2 1 - - 7 -
19.02.2019 04:00:00 8,5 6,6 2 1 ENE 1023,7 7 0,0
19.02.2019 03:00:00 9,0 6,0 4 2 NNW - 8 -
19.02.2019 02:00:00 9,0 6,0 2 1 - - 8 -
19.02.2019 01:00:00 8,8 6,2 2 1 - 1024,7 8 -
19.02.2019 00:00:00 9,0 6,0 2 1 - - 7 -
18.02.2019 23:00:00 9,0 6,0 5 3 E - 7 -
18.02.2019 22:00:00 8,1 6,1 5 3 ESE 1025,0 7 0,0
18.02.2019 21:00:00 8,0 6,0 5 3 E - 8 -
18.02.2019 20:00:00 8,0 6,0 5 3 ESE - 8 -
18.02.2019 19:00:00 9,5 7,0 2 1 - 1024,7 8 -
18.02.2019 18:00:00 11,0 7,0 4 2 - - 8 -
18.02.2019 17:00:00 12,0 7,0 9 5 WSW - 9 -
18.02.2019 16:00:00 12,1 6,0 5 3 NW 1025,0 9 0,0
18.02.2019 15:00:00 12,0 6,0 4 2 - - 8 -
18.02.2019 14:00:00 12,0 6,0 5 3 - - 8 -
18.02.2019 13:00:00 11,5 6,2 4 2 - 1026,3 8 -
18.02.2019 12:00:00 11,0 6,0 4 2 - - 8 -
18.02.2019 11:00:00 10,0 6,0 4 2 - - 8 -
18.02.2019 10:00:00 10,0 6,2 4 2 - 1027,1 8 0,0
18.02.2019 09:00:00 9,0 6,0 5 3 ENE - 8 -
18.02.2019 08:00:00 9,0 6,0 4 2 - - 8 -
18.02.2019 07:00:00 8,6 6,1 4 2 - 1026,5 8 -
18.02.2019 06:00:00 8,0 6,0 8 4 E - 8 -
18.02.2019 05:00:00 8,0 6,0 11 6 E - 8 -
18.02.2019 04:00:00 7,6 5,9 8 4 E 1026,8 8 0,0
18.02.2019 03:00:00 8,0 6,0 9 5 E - 8 -
18.02.2019 02:00:00 7,0 6,0 9 5 ESE - 8 -
18.02.2019 01:00:00 7,0 5,6 9 5 ESE 1027,8 8 -
18.02.2019 00:00:00 7,0 6,0 8 4 E - 8 -
17.02.2019 23:00:00 7,0 5,0 9 5 ESE - 9 -
17.02.2019 22:00:00 6,9 5,8 8 4 ESE 1028,0 9 0,0
17.02.2019 21:00:00 8,0 7,0 9 5 SE - 9 -
17.02.2019 20:00:00 8,0 6,0 8 4 SE - 10 -
17.02.2019 19:00:00 9,0 6,8 5 3 SSE 1027,8 10 -
17.02.2019 18:00:00 11,0 7,0 5 3 SW - 10 -
17.02.2019 17:00:00 13,0 8,0 9 5 W - 10 -
17.02.2019 16:00:00 14,0 6,8 11 6 W 1027,3 10 0,0
17.02.2019 15:00:00 15,0 3,0 8 4 NW - 10 -
17.02.2019 14:00:00 14,0 3,0 5 3 - - 10 -
17.02.2019 13:00:00 13,2 4,5 5 3 NNW 1028,8 10 -
17.02.2019 12:00:00 12,0 5,0 8 4 W - 10 -
17.02.2019 11:00:00 - - - - - - - -
17.02.2019 10:00:00 9,1 3,6 4 2 N 1029,9 10 0,0
17.02.2019 09:00:00 5,0 2,0 4 2 - - 10 -
17.02.2019 08:00:00 4,0 1,0 4 2 - - 10 -
17.02.2019 07:00:00 3,1 0,8 4 2 - 1029,2 10 -
17.02.2019 06:00:00 4,0 1,0 2 1 - - 10 -
17.02.2019 05:00:00 3,0 0,0 4 2 - - 10 -
17.02.2019 04:00:00 3,9 1,2 4 2 - 1029,1 10 0,0
17.02.2019 03:00:00 5,0 1,0 9 5 E - 10 -
17.02.2019 02:00:00 5,0 2,0 9 5 E - 10 -
17.02.2019 01:00:00 5,5 2,1 9 5 E 1029,9 10 -
17.02.2019 00:00:00 6,0 3,0 9 5 E - 10 -
16.02.2019 23:00:00 6,0 3,0 9 5 ESE - 10 -
16.02.2019 22:00:00 5,7 3,6 8 4 ESE 1030,0 10 0,0
16.02.2019 21:00:00 6,0 4,0 8 4 ESE - 10 -
16.02.2019 20:00:00 7,0 4,0 5 3 SE - 10 -
16.02.2019 19:00:00 7,8 3,9 4 2 - 1029,4 10 -
16.02.2019 18:00:00 11,0 4,0 4 2 - - 10 -
16.02.2019 17:00:00 13,0 5,0 11 6 WSW - 10 -
16.02.2019 16:00:00 14,2 5,1 9 5 W 1028,5 10 0,0
16.02.2019 15:00:00 14,0 2,0 9 5 W - 10 -
16.02.2019 14:00:00 14,0 2,0 9 5 WNW - 10 -
16.02.2019 13:00:00 12,8 3,4 8 4 NW 1030,0 10 -
16.02.2019 12:00:00 12,0 0,0 5 3 N - 10 -
16.02.2019 11:00:00 9,0 2,0 9 5 NNE - 10 -
16.02.2019 10:00:00 7,6 0,3 11 6 NNE 1030,5 10 0,0
16.02.2019 09:00:00 6,0 0,0 9 5 NNE - 10 -
16.02.2019 08:00:00 3,0 -1,0 8 4 NNE - 10 -
16.02.2019 07:00:00 3,5 -0,9 5 3 NNE 1029,2 10 -
16.02.2019 06:00:00 4,0 -1,0 5 3 ENE - 10 -
16.02.2019 05:00:00 4,0 -1,0 5 3 NE - 10 -
16.02.2019 04:00:00 5,2 -0,3 9 5 NE 1028,5 10 0,0
16.02.2019 03:00:00 5,0 1,0 5 3 NE - 10 -
16.02.2019 02:00:00 5,0 2,0 5 3 NNE - 10 -

tt = temperature
td = dewpoint
ff = wind speed
dd = wind direction
ppp = reduced air pressure
vv = visibility
rr = precipitation

Next stations